Location: *
(51.2167°N, 10.0667°E)
Time: 13:56:56
(UTC+00:00)

Meteor 1-27 Rocket - Pass Details

Date: 12 December 2019
Orbit: 830 x 909 km, 81.3° (Epoch: 28 January)

Event Time Altitude Azimuth Distance (km) Brightness Sun altitude
Rises 15:59:43 0° 171° (S) 3,451 7.2 -7.1°
Reaches altitude 10° 16:02:11 10° 166° (SSE) 2,529 6.4 -7.4°
Maximum altitude 16:07:41 48° 94° (E) 1,155 4.1 -8.2°
Drops below altitude 10° 16:13:19 10° 22° (NNE) 2,591 5.8 -9.0°
Sets 16:15:53 0° 17° (NNE) 3,544 6.5 -9.4°
